FW5816 Weather Reports


Display with metric or nautical units.
time (UTC)temp
F
wind
direction
speed
MPH
gust
MPH
rain 1hr
in
rain 24hr
in
rain mn
in
humidity
%
barometer
mb
20240714225514 92 174 1.0 8.0 0.00 0.00 0.00 59 1017.0
20240714225019 92 205 4.0 8.0 0.00 0.00 0.00 56 1016.9
20240714224519 93 283 1.0 6.0 0.00 0.00 0.00 57 1016.9
20240714224012 93 146 1.0 6.0 0.00 0.00 0.00 57 1016.7
20240714223516 92 150 3.0 6.0 0.00 0.00 0.00 57 1016.7
20240714223015 92 262 1.0 7.0 0.00 0.00 0.00 59 1016.6
20240714222514 92 34 2.0 9.0 0.00 0.00 0.00 58 1016.6
20240714222014 92 214 4.0 9.0 0.00 0.00 0.00 58 1016.7
20240714221515 92 306 3.0 9.0 0.00 0.00 0.00 59 1016.8
20240714221014 92 226 1.0 5.0 0.00 0.00 0.00 58 1016.8
20240714220515 91 224 2.0 5.0 0.00 0.00 0.00 57 1016.8
20240714220018 92 295 1.0 4.0 0.00 0.00 0.00 58 1016.9
20240714215512 91 217 2.0 4.0 0.00 0.00 0.00 59 1016.9
20240714215012 91 212 1.0 6.0 0.00 0.00 0.00 59 1016.9
20240714214514 90 231 1.0 8.0 0.00 0.00 0.00 60 1017.1
20240714214014 91 233 4.0 8.0 0.00 0.00 0.00 59 1017.0
20240714213514 91 281 1.0 6.0 0.00 0.00 0.00 59 1017.0
20240714213025 91 256 2.0 8.0 0.00 0.00 0.00 59 1017.1
20240714212515 91 281 4.0 8.0 0.00 0.00 0.00 58 1017.2
20240714212013 92 167 0.0 3.0 0.00 0.00 0.00 59 1017.1
20240714211515 90 0 0.0 3.0 0.00 0.00 0.00 61 1017.2
20240714211015 90 291 1.0 3.0 0.00 0.00 0.00 59 1017.4
20240714210514 91 266 0.0 10.0 0.00 0.00 0.00 59 1017.5
20240714210018 90 318 1.0 10.0 0.00 0.00 0.00 60 1017.6
20240714205515 91 250 3.0 9.0 0.00 0.00 0.00 58 1017.6
20240714205015 91 304 4.0 9.0 0.00 0.00 0.00 57 1017.7
20240714204527 90 170 3.0 9.0 0.00 0.00 0.00 59 1017.8
20240714204014 91 253 3.0 10.0 0.00 0.00 0.00 61 1017.9
20240714203511 91 172 4.0 12.0 0.00 0.00 0.00 61 1017.7
20240714203024 90 259 6.0 12.0 0.00 0.00 0.00 61 1017.8
20240714202512 91 282 4.0 10.0 0.00 0.00 0.00 60 1017.8
20240714202017 91 261 3.0 10.0 0.00 0.00 0.00 61 1017.7
20240714201514 91 221 4.0 11.0 0.00 0.00 0.00 60 1017.6
20240714201014 91 207 5.0 11.0 0.00 0.00 0.00 60 1017.6
20240714200515 91 255 2.0 9.0 0.00 0.00 0.00 60 1017.8
20240714200017 91 187 4.0 10.0 0.00 0.00 0.00 60 1017.8
20240714195514 90 217 3.0 11.0 0.00 0.00 0.00 61 1018.0
20240714195015 90 354 5.0 11.0 0.00 0.00 0.00 61 1018.1
20240714194519 90 231 3.0 10.0 0.00 0.00 0.00 61 1018.1
20240714194015 90 262 4.0 9.0 0.00 0.00 0.00 61 1018.2
20240714193513 89 168 4.0 12.0 0.00 0.00 0.00 61 1018.2
20240714193026 90 278 2.0 12.0 0.00 0.00 0.00 60 1018.1
20240714192515 90 267 4.0 12.0 0.00 0.00 0.00 59 1018.1
20240714192015 90 322 5.0 12.0 0.00 0.00 0.00 60 1018.1
20240714191514 90 314 2.0 9.0 0.00 0.00 0.00 59 1018.1
20240714191014 90 295 4.0 9.0 0.00 0.00 0.00 60 1018.1
20240714190511 89 172 3.0 10.0 0.00 0.00 0.00 61 1018.1
20240714190023 89 257 3.0 10.0 0.00 0.00 0.00 61 1018.1
20240714185512 90 280 5.0 9.0 0.00 0.00 0.00 62 1018.3
20240714185015 90 295 1.0 11.0 0.00 0.00 0.00 61 1018.3
20240714184514 89 290 4.0 11.0 0.00 0.00 0.00 61 1018.2
20240714184014 89 287 4.0 11.0 0.00 0.00 0.00 61 1018.4
20240714183511 88 294 1.0 11.0 0.00 0.00 0.00 62 1018.3
20240714183019 88 293 6.0 11.0 0.00 0.00 0.00 61 1018.5
20240714182513 89 223 2.0 10.0 0.00 0.00 0.00 61 1018.6
20240714182018 89 265 5.0 10.0 0.00 0.00 0.00 62 1018.6
20240714181521 89 254 3.0 11.0 0.00 0.00 0.00 61 1018.7
20240714181014 89 203 4.0 11.0 0.00 0.00 0.00 60 1018.8
20240714180514 89 234 5.0 11.0 0.00 0.00 0.00 62 1018.9
20240714180021 89 262 3.0 13.0 0.00 0.00 0.00 62 1018.8
20240714175512 89 259 5.0 13.0 0.00 0.00 0.00 61 1018.8
20240714175015 89 283 4.0 9.0 0.00 0.00 0.00 64 1019.1
20240714174515 89 316 3.0 8.0 0.00 0.00 0.00 65 1019.0
20240714174013 88 288 4.0 10.0 0.00 0.00 0.00 63 1019.0
20240714173511 89 223 3.0 12.0 0.00 0.00 0.00 63 1019.0
20240714173015 88 233 6.0 12.0 0.00 0.00 0.00 63 1019.2
20240714172514 88 302 4.0 14.0 0.00 0.00 0.00 63 1019.2
20240714172015 87 256 7.0 14.0 0.00 0.00 0.00 65 1019.3
20240714171527 87 269 8.0 14.0 0.00 0.00 0.00 64 1019.4
20240714171012 87 261 6.0 14.0 0.00 0.00 0.00 64 1019.5
20240714170511 88 252 4.0 15.0 0.00 0.00 0.00 65 1019.6
20240714170018 87 245 7.0 15.0 0.00 0.00 0.00 65 1019.6
20240714165519 87 262 3.0 11.0 0.00 0.00 0.00 66 1019.6
20240714165014 87 239 6.0 11.0 0.00 0.00 0.00 65 1019.6
20240714164518 87 181 3.0 14.0 0.00 0.00 0.00 65 1019.6
20240714164012 87 265 6.0 14.0 0.00 0.00 0.00 65 1019.8
20240714163514 86 169 5.0 13.0 0.00 0.00 0.00 66 1019.8
20240714163016 86 262 6.0 11.0 0.00 0.00 0.00 66 1019.9
20240714162511 86 240 4.0 11.0 0.00 0.00 0.00 66 1019.9
20240714162013 86 293 4.0 11.0 0.00 0.00 0.00 66 1019.9
20240714161515 86 231 3.0 11.0 0.00 0.00 0.00 67 1019.9
20240714161012 86 197 5.0 11.0 0.00 0.00 0.00 66 1020.0
20240714160515 86 259 4.0 11.0 0.00 0.00 0.00 66 1020.0
20240714160029 86 150 4.0 12.0 0.00 0.00 0.00 67 1020.1
20240714155513 86 312 4.0 12.0 0.00 0.00 0.00 67 1020.0
20240714155014 86 322 4.0 11.0 0.00 0.00 0.00 68 1020.1
20240714154526 86 155 6.0 11.0 0.00 0.00 0.00 68 1020.2
20240714154013 86 151 3.0 12.0 0.00 0.00 0.00 69 1020.2
20240714153514 85 177 4.0 12.0 0.00 0.00 0.00 68 1020.2
20240714153015 85 181 4.0 11.0 0.00 0.00 0.00 68 1020.2
20240714152514 85 250 2.0 9.0 0.00 0.00 0.00 69 1020.2
20240714152015 85 246 4.0 9.0 0.00 0.00 0.00 68 1020.3
20240714151516 85 248 3.0 10.0 0.00 0.00 0.00 70 1020.4
20240714151012 84 232 3.0 12.0 0.00 0.00 0.00 69 1020.3
20240714150513 84 242 6.0 13.0 0.00 0.00 0.00 70 1020.4
20240714150017 84 284 5.0 13.0 0.00 0.00 0.00 69 1020.4
20240714145511 84 153 4.0 10.0 0.00 0.00 0.00 69 1020.4
20240714145012 84 155 3.0 10.0 0.00 0.00 0.00 70 1020.4
20240714144515 84 320 2.0 10.0 0.00 0.00 0.00 69 1020.4
20240714144014 84 300 3.0 10.0 0.00 0.00 0.00 70 1020.4
20240714143514 83 248 3.0 7.0 0.00 0.00 0.00 70 1020.5
20240714143013 83 194 1.0 7.0 0.00 0.00 0.00 71 1020.5
20240714142514 83 236 0.0 7.0 0.00 0.00 0.00 72 1020.6
20240714142011 82 193 2.0 9.0 0.00 0.00 0.00 71 1020.6
20240714141515 82 165 4.0 9.0 0.00 0.00 0.00 71 1020.6
20240714141015 82 248 2.0 6.0 0.00 0.00 0.00 72 1020.7
20240714140513 82 250 2.0 4.0 0.00 0.00 0.00 71 1020.7
20240714140024 81 302 1.0 6.0 0.00 0.00 0.00 73 1020.7
20240714135514 81 233 3.0 7.0 0.00 0.00 0.00 72 1020.7
20240714135015 80 234 2.0 7.0 0.00 0.00 0.00 73 1020.7
20240714134515 80 222 2.0 4.0 0.00 0.00 0.00 74 1020.7
20240714134011 80 227 1.0 6.0 0.00 0.00 0.00 75 1020.8
20240714133512 79 231 3.0 6.0 0.00 0.00 0.00 75 1020.9
20240714133017 79 0 2.0 6.0 0.00 0.00 0.00 74 1021.0
20240714132513 79 307 1.0 4.0 0.00 0.00 0.00 75 1020.8
20240714132011 78 212 1.0 3.0 0.00 0.00 0.00 76 1021.0
20240714131516 78 0 0.0 3.0 0.00 0.00 0.00 76 1021.0
20240714131011 78 248 1.0 3.0 0.00 0.00 0.00 76 1020.9
20240714130511 78 0 0.0 3.0 0.00 0.00 0.00 77 1020.9
20240714130017 77 285 0.0 3.0 0.00 0.00 0.00 78 1020.8
20240714125513 76 237 1.0 5.0 0.00 0.00 0.00 77 1020.6
20240714125014 77 274 0.0 5.0 0.00 0.00 0.00 77 1020.7
20240714124526 77 169 1.0 5.0 0.00 0.00 0.00 77 1020.6
20240714124011 76 0 0.0 3.0 0.00 0.00 0.00 78 1020.5
20240714123514 76 0 0.0 6.0 0.00 0.00 0.00 79 1020.3
20240714123017 75 0 0.0 6.0 0.00 0.00 0.00 79 1020.2
20240714122512 75 162 1.0 5.0 0.00 0.00 0.00 80 1020.2
20240714122016 75 157 0.0 5.0 0.00 0.00 0.00 79 1020.1
20240714121514 75 155 0.0 3.0 0.00 0.00 0.00 80 1020.2
20240714121014 74 0 0.0 3.0 0.00 0.00 0.00 82 1020.1
20240714120514 74 91 0.0 1.0 0.00 0.00 0.00 83 1020.2
20240714120025 73 0 0.0 1.0 0.00 0.00 0.00 84 1020.2
20240714115514 73 0 0.0 1.0 0.00 0.00 0.00 86 1020.2
20240714115014 73 0 0.0 1.0 0.00 0.00 0.00 85 1020.2
20240714114513 72 131 0.0 1.0 0.00 0.00 0.00 86 1020.2
20240714114011 72 0 0.0 1.0 0.00 0.00 0.00 87 1020.1
20240714113514 71 0 0.0 1.0 0.00 0.00 0.00 88 1020.2
20240714113017 71 0 0.0 1.0 0.00 0.00 0.00 88 1020.2
20240714112515 71 0 0.0 1.0 0.00 0.00 0.00 88 1020.0
20240714112012 71 0 0.0 1.0 0.00 0.00 0.00 88 1020.1
20240714111522 70 0 0.0 1.0 0.00 0.00 0.00 89 1020.1
20240714111015 70 0 0.0 1.0 0.00 0.00 0.00 90 1020.2
20240714110514 70 133 0.0 1.0 0.00 0.00 0.00 90 1020.0
20240714110022 70 100 0.0 1.0 0.00 0.00 0.00 90 1020.1
20240714105516 70 0 0.0 1.0 0.00 0.00 0.00 91 1020.0
20240714105013 70 0 0.0 1.0 0.00 0.00 0.00 91 1019.9
20240714104517 69 0 0.0 1.0 0.00 0.00 0.00 91 1020.1
20240714104015 69 0 0.0 1.0 0.00 0.00 0.00 91 1020.1
20240714103513 70 0 0.0 1.0 0.00 0.00 0.00 91 1020.1
20240714103027 70 0 0.0 1.0 0.00 0.00 0.00 90 1020.1
20240714102512 70 0 0.0 1.0 0.00 0.00 0.00 90 1020.0
20240714102012 70 0 0.0 1.0 0.00 0.00 0.00 90 1020.1
20240714101515 70 0 0.0 1.0 0.00 0.00 0.00 90 1020.2
20240714101014 70 0 0.0 0.0 0.00 0.00 0.00 90 1020.3
20240714100514 70 0 0.0 0.0 0.00 0.00 0.00 90 1020.2
20240714100024 70 0 0.0 0.0 0.00 0.00 0.00 90 1020.2
20240714095511 70 0 0.0 0.0 0.00 0.00 0.00 90 1020.0
20240714095011 70 0 0.0 0.0 0.00 0.00 0.00 90 1020.0
20240714094520 70 0 0.0 0.0 0.00 0.00 0.00 90 1019.9
20240714094014 70 0 0.0 0.0 0.00 0.00 0.00 90 1019.9
20240714093517 70 0 0.0 0.0 0.00 0.00 0.00 89 1019.8
20240714093016 70 0 0.0 0.0 0.00 0.00 0.00 89 1019.8
20240714092514 70 0 0.0 0.0 0.00 0.00 0.00 89 1019.8
20240714092011 70 0 0.0 0.0 0.00 0.00 0.00 89 1019.7
20240714091525 71 0 0.0 0.0 0.00 0.00 0.00 89 1019.6
20240714091013 71 0 0.0 0.0 0.00 0.00 0.00 89 1019.7
20240714090514 71 0 0.0 1.0 0.00 0.00 0.00 89 1019.7
20240714090022 71 0 0.0 1.0 0.00 0.00 0.00 88 1019.6
20240714085515 71 0 0.0 0.0 0.00 0.00 0.00 88 1019.6
20240714085016 71 0 0.0 1.0 0.00 0.00 0.00 88 1019.8
20240714084529 71 0 0.0 1.0 0.00 0.00 0.00 88 1019.6
20240714084010 70 0 0.0 1.0 0.00 0.00 0.00 89 1019.6
20240714083513 70 0 0.0 0.0 0.00 0.00 0.00 89 1019.6
20240714083015 71 0 0.0 0.0 0.00 0.00 0.00 89 1019.5
20240714082514 71 0 0.0 0.0 0.00 0.00 0.00 88 1019.5
20240714082014 71 0 0.0 0.0 0.00 0.00 0.00 88 1019.5
20240714081516 71 0 0.0 0.0 0.00 0.00 0.00 88 1019.5
20240714081013 71 0 0.0 0.0 0.00 0.00 0.00 88 1019.5
20240714080510 71 0 0.0 0.0 0.00 0.00 0.00 88 1019.6
20240714080013 71 0 0.0 0.0 0.00 0.00 0.00 87 1019.5
20240714075513 71 0 0.0 0.0 0.00 0.00 0.00 88 1019.6
20240714075014 71 0 0.0 0.0 0.00 0.00 0.00 88 1019.5
20240714074513 71 0 0.0 0.0 0.00 0.00 0.00 88 1019.7
20240714074014 71 0 0.0 0.0 0.00 0.00 0.00 88 1019.7
20240714073513 71 0 0.0 0.0 0.00 0.00 0.00 88 1019.8
20240714073013 71 0 0.0 1.0 0.00 0.00 0.00 88 1019.6
20240714072515 71 0 0.0 1.0 0.00 0.00 0.00 88 1019.8
20240714072013 71 0 0.0 0.0 0.00 0.00 0.00 88 1019.8
20240714071513 72 0 0.0 0.0 0.00 0.00 0.00 88 1020.0
20240714071013 72 0 0.0 0.0 0.00 0.00 0.00 88 1020.2
20240714070517 72 0 0.0 0.0 0.00 0.00 0.00 88 1020.2
20240714070016 72 0 0.0 0.0 0.00 0.00 0.00 87 1020.3
20240714065515 72 0 0.0 0.0 0.00 0.00 0.00 87 1020.2
20240714065012 72 0 0.0 0.0 0.00 0.00 0.00 87 1020.4
20240714064523 72 0 0.0 0.0 0.00 0.00 0.00 87 1020.4
20240714064016 72 0 0.0 0.0 0.00 0.00 0.00 88 1020.4
20240714063513 72 0 0.0 0.0 0.00 0.00 0.00 88 1020.4
20240714063015 72 0 0.0 1.0 0.00 0.00 0.00 88 1020.4
20240714062514 72 0 0.0 1.0 0.00 0.00 0.00 88 1020.4
20240714062014 72 0 0.0 1.0 0.00 0.00 0.00 88 1020.6
20240714061514 72 0 0.0 0.0 0.00 0.00 0.00 88 1020.6
20240714061015 72 0 0.0 0.0 0.00 0.00 0.00 88 1020.7
20240714060514 72 0 0.0 0.0 0.00 0.00 0.00 88 1020.7
20240714060016 72 0 0.0 0.0 0.00 0.00 0.00 88 1020.7
20240714055511 72 0 0.0 0.0 0.00 0.00 0.00 87 1020.7
20240714055011 72 0 0.0 0.0 0.00 0.00 0.00 87 1020.8
20240714054518 72 0 0.0 0.0 0.00 0.00 0.00 87 1020.8
20240714054014 72 0 0.0 0.0 0.00 0.00 0.00 87 1020.8
20240714053511 72 0 0.0 0.0 0.00 0.00 0.00 87 1021.0
20240714053016 72 0 0.0 0.0 0.00 0.00 0.00 87 1021.1
20240714052510 72 0 0.0 0.0 0.00 0.00 0.00 87 1021.1
20240714052013 72 0 0.0 0.0 0.00 0.00 0.00 87 1021.1
20240714051517 73 0 0.0 0.0 0.00 0.00 0.00 87 1021.0
20240714051014 73 0 0.0 0.0 0.00 0.00 0.00 87 1021.2
20240714050511 73 0 0.0 0.0 0.00 0.00 0.00 87 1021.3
20240714050015 73 0 0.0 0.0 0.00 0.00 0.00 87 1021.4
20240714045510 73 0 0.0 0.0 0.00 0.00 0.00 87 1021.4
20240714045012 73 0 0.0 0.0 0.00 0.00 0.00 87 1021.5
20240714044513 73 0 0.0 0.0 0.00 0.00 0.00 87 1021.4
20240714044011 73 0 0.0 0.0 0.00 0.00 0.00 87 1021.1
20240714043511 73 0 0.0 1.0 0.00 0.00 0.00 87 1021.1
20240714043014 73 0 0.0 1.0 0.00 0.00 0.00 87 1021.0
20240714042514 73 0 0.0 1.0 0.00 0.00 0.00 87 1021.0
20240714042014 73 0 0.0 0.0 0.00 0.00 0.00 87 1021.0
20240714041521 73 0 0.0 0.0 0.00 0.00 0.00 87 1021.0
20240714041013 73 0 0.0 0.0 0.00 0.00 0.00 87 1020.9
20240714040510 73 0 0.0 1.0 0.00 0.00 0.00 86 1020.9
20240714040018 73 0 0.0 1.0 0.00 0.00 0.00 86 1020.9
20240714035511 73 0 0.0 1.0 0.00 0.00 0.00 86 1020.7
20240714035013 73 0 0.0 1.0 0.00 0.00 0.00 86 1020.8
20240714034516 73 0 0.0 1.0 0.00 0.00 0.00 86 1020.8
20240714034013 73 147 0.0 1.0 0.00 0.00 0.00 86 1021.0
20240714033510 74 0 0.0 0.0 0.00 0.00 0.00 85 1020.8
20240714033033 74 0 0.0 0.0 0.00 0.00 0.00 84 1020.9
20240714032510 74 0 0.0 0.0 0.00 0.00 0.00 84 1020.8
20240714032012 74 0 0.0 0.0 0.00 0.00 0.00 84 1020.8
20240714031516 74 0 0.0 0.0 0.00 0.00 0.00 84 1020.8
20240714031014 75 0 0.0 0.0 0.00 0.00 0.00 83 1020.8
20240714030516 75 0 0.0 0.0 0.00 0.00 0.00 83 1020.9
20240714030013 75 0 0.0 1.0 0.00 0.00 0.00 83 1020.7
20240714025511 75 0 0.0 1.0 0.00 0.00 0.00 82 1020.7
20240714025014 75 0 0.0 1.0 0.00 0.00 0.00 83 1020.7
20240714024520 75 0 0.0 0.0 0.00 0.00 0.00 82 1020.7
20240714024014 75 0 0.0 0.0 0.00 0.00 0.00 82 1020.8
20240714023514 75 0 0.0 0.0 0.00 0.00 0.00 82 1020.8
20240714023016 75 0 0.0 1.0 0.00 0.00 0.00 82 1020.8
20240714022513 75 0 0.0 1.0 0.00 0.00 0.00 82 1020.7
20240714022013 75 0 0.0 1.0 0.00 0.00 0.00 82 1020.7
20240714021514 75 136 0.0 0.0 0.00 0.00 0.00 82 1020.7
20240714021014 75 0 0.0 0.0 0.00 0.00 0.00 82 1020.7
20240714020514 75 0 0.0 1.0 0.00 0.00 0.00 82 1020.7
20240714020013 75 136 0.0 1.0 0.00 0.00 0.00 83 1020.7
20240714015511 75 161 0.0 1.0 0.00 0.00 0.00 84 1020.7
20240714015012 75 0 0.0 1.0 0.00 0.00 0.00 83 1020.6
20240714014514 75 0 0.0 1.0 0.00 0.00 0.00 82 1020.6
20240714014011 76 0 0.0 0.0 0.00 0.00 0.00 81 1020.5
20240714013512 76 0 0.0 0.0 0.00 0.00 0.00 81 1020.6
20240714013013 76 0 0.0 0.0 0.00 0.00 0.00 80 1020.6
20240714012517 76 0 0.0 1.0 0.00 0.00 0.00 80 1020.6
20240714012010 76 36 0.0 1.0 0.00 0.00 0.00 79 1020.5
20240714011517 76 0 0.0 1.0 0.00 0.00 0.00 79 1020.5
20240714011011 76 0 0.0 1.0 0.00 0.00 0.00 79 1020.7
20240714010511 77 0 0.0 0.0 0.00 0.00 0.00 79 1020.7
20240714010023 77 0 0.0 0.0 0.00 0.00 0.00 79 1020.7
20240714005513 77 0 0.0 0.0 0.00 0.00 0.00 79 1020.7
20240714005011 77 0 0.0 0.0 0.00 0.00 0.00 78 1020.7
20240714004535 77 0 0.0 0.0 0.00 0.00 0.00 78 1020.6
20240714004010 77 0 0.0 1.0 0.00 0.00 0.00 78 1020.7
20240714003513 77 0 0.0 2.0 0.00 0.00 0.00 78 1020.9
20240714003020 77 0 0.0 2.0 0.00 0.00 0.00 78 1020.8
20240714002511 77 263 0.0 3.0 0.00 0.00 0.00 79 1021.0
20240714002011 77 287 0.0 4.0 0.00 0.00 0.00 79 1020.9
20240714001513 77 256 0.0 4.0 0.00 0.00 0.00 79 1021.0
20240714001011 77 283 2.0 5.0 0.00 0.00 0.00 79 1021.1
20240714000510 77 0 0.0 5.0 0.00 0.00 0.00 81 1021.0
20240714000019 76 309 0.0 5.0 0.00 0.00 0.00 81 1021.0
20240713235511 76 269 1.0 6.0 0.00 0.00 0.00 81 1021.1
20240713235016 76 298 1.0 6.0 0.00 0.00 0.00 82 1021.2
20240713234514 76 326 0.0 7.0 0.00 0.00 0.00 81 1021.5
20240713234011 76 295 2.0 7.0 0.00 0.00 0.00 79 1021.5
20240713233510 77 321 1.0 6.0 0.00 0.00 0.00 78 1021.4
20240713233014 77 16 1.0 7.0 0.00 0.00 0.00 77 1021.5
20240713232510 78 288 2.0 10.0 0.00 0.00 0.00 74 1021.2
20240713232011 79 257 3.0 10.0 0.00 0.00 0.00 72 1021.1
20240713231514 80 302 2.0 8.0 0.00 0.00 0.00 68 1021.0
20240713231013 80 0 1.0 9.0 0.00 0.00 0.00 67 1020.9
20240713230511 80 0 1.0 11.0 0.00 0.00 0.00 66 1020.9
20240713230015 81 155 5.0 22.0 0.00 0.00 0.00 65 1020.7